ACA142 CYUL-CYQB

Flight info

Callsign ACA142
Flight time 0h 33m
Altitude 19000
Route ANTEG DCT OBRON DCT MOBUB DCT PESAC PESAC4
Aircraft B738/M-SDE2E3FGHIRWXY/LB1

Departure

Time 2026-05-07 21:41
Airport Montreal / Pierre Elliott Trudeau International Airport (CYUL)

Arrival

Time 2026-05-07 22:14
Airport Quebec Jean Lesage International Airport (CYQB)
Time Latitude Longitude Altitude Speed Heading
2026-05-07 21:23 45.45888 -73.74603 106 ft 0 kts 176°
2026-05-07 21:28 45.45889 -73.74603 106 ft 1 kts 176°
2026-05-07 21:28 45.45906 -73.74604 105 ft 3 kts 179°
2026-05-07 21:28 45.45921 -73.74605 106 ft 3 kts 174°
2026-05-07 21:29 45.45938 -73.74612 106 ft 4 kts 136°
2026-05-07 21:29 45.45946 -73.74632 107 ft 3 kts 94°
2026-05-07 21:29 45.45945 -73.74660 107 ft 3 kts 77°
2026-05-07 21:29 45.45943 -73.74674 104 ft 2 kts 75°
2026-05-07 21:30 45.45942 -73.74676 104 ft 2 kts 75°
2026-05-07 21:32 45.45943 -73.74676 105 ft 2 kts 75°
2026-05-07 21:33 45.45955 -73.74613 108 ft 8 kts 74°
2026-05-07 21:33 45.45975 -73.74526 109 ft 14 kts 70°
2026-05-07 21:33 45.45996 -73.74385 105 ft 15 kts 113°
2026-05-07 21:33 45.45986 -73.74256 103 ft 15 kts 45°
2026-05-07 21:34 45.46053 -73.74168 104 ft 13 kts 44°
2026-05-07 21:34 45.46120 -73.74078 103 ft 16 kts 42°
2026-05-07 21:34 45.46206 -73.73971 105 ft 16 kts 43°
2026-05-07 21:34 45.46296 -73.73850 106 ft 21 kts 43°
2026-05-07 21:35 45.46404 -73.73708 108 ft 21 kts 43°
2026-05-07 21:35 45.46509 -73.73571 111 ft 20 kts 42°
2026-05-07 21:35 45.46611 -73.73439 111 ft 20 kts 42°
2026-05-07 21:35 45.46710 -73.73309 110 ft 19 kts 43°
2026-05-07 21:36 45.46805 -73.73184 113 ft 18 kts 42°
2026-05-07 21:36 45.46898 -73.73062 113 ft 18 kts 42°
2026-05-07 21:36 45.46993 -73.72937 118 ft 18 kts 43°
2026-05-07 21:36 45.47084 -73.72816 118 ft 18 kts 43°
2026-05-07 21:37 45.47189 -73.72680 117 ft 22 kts 41°
2026-05-07 21:37 45.47303 -73.72530 117 ft 22 kts 43°
2026-05-07 21:37 45.47414 -73.72383 116 ft 21 kts 43°
2026-05-07 21:37 45.47521 -73.72245 122 ft 21 kts 42°
2026-05-07 21:38 45.47626 -73.72106 124 ft 20 kts 43°
2026-05-07 21:38 45.47727 -73.71975 128 ft 20 kts 42°
2026-05-07 21:38 45.47809 -73.71858 127 ft 14 kts 62°
2026-05-07 21:38 45.47771 -73.71742 123 ft 11 kts 132°
2026-05-07 21:39 45.47756 -73.71721 121 ft 0 kts 133°
2026-05-07 21:39 45.47749 -73.71710 125 ft 8 kts 133°
2026-05-07 21:39 45.47685 -73.71646 122 ft 12 kts 181°
2026-05-07 21:40 45.47637 -73.71690 125 ft 0 kts 222°
2026-05-07 21:40 45.47624 -73.71706 126 ft 10 kts 222°
2026-05-07 21:40 45.47372 -73.72039 120 ft 95 kts 224°
2026-05-07 21:40 45.46673 -73.72952 134 ft 172 kts 227°
2026-05-07 21:41 45.45715 -73.74233 780 ft 197 kts 228°
2026-05-07 21:41 45.44723 -73.75621 1633 ft 210 kts 229°
2026-05-07 21:41 45.43667 -73.77157 2412 ft 219 kts 230°
2026-05-07 21:41 45.42519 -73.78638 3108 ft 231 kts 214°
2026-05-07 21:42 45.40999 -73.79279 4079 ft 231 kts 190°
2026-05-07 21:42 45.39399 -73.79116 4986 ft 237 kts 172°
2026-05-07 21:42 45.37873 -73.78006 5415 ft 263 kts 143°
2026-05-07 21:42 45.36808 -73.75812 6004 ft 278 kts 110°
2026-05-07 21:43 45.36656 -73.73089 6789 ft 280 kts 77°
2026-05-07 21:43 45.37432 -73.70499 7267 ft 294 kts 48°
2026-05-07 21:43 45.39014 -73.68748 8120 ft 288 kts 19°
2026-05-07 21:43 45.40868 -73.67780 9119 ft 285 kts 14°
2026-05-07 21:44 45.42741 -73.66826 9794 ft 286 kts 15°
2026-05-07 21:44 45.44615 -73.65795 10010 ft 289 kts 17°
2026-05-07 21:44 45.46489 -73.64719 10018 ft 291 kts 17°
2026-05-07 21:44 45.48395 -73.63601 10142 ft 310 kts 18°
2026-05-07 21:45 45.50485 -73.62363 10368 ft 337 kts 18°
2026-05-07 21:45 45.52717 -73.61023 10724 ft 355 kts 19°
2026-05-07 21:45 45.54990 -73.59640 11397 ft 363 kts 19°
2026-05-07 21:45 45.57338 -73.58211 12189 ft 366 kts 18°
2026-05-07 21:46 45.59749 -73.56922 12965 ft 371 kts 15°
2026-05-07 21:46 45.62166 -73.55659 13707 ft 377 kts 17°
2026-05-07 21:46 45.64564 -73.54320 14372 ft 382 kts 18°
2026-05-07 21:46 45.67091 -73.52809 15076 ft 387 kts 19°
2026-05-07 21:47 45.69577 -73.51251 15762 ft 392 kts 19°
2026-05-07 21:47 45.72080 -73.49641 16441 ft 397 kts 20°
2026-05-07 21:47 45.74619 -73.47988 17118 ft 402 kts 20°
2026-05-07 21:47 45.77153 -73.46333 17767 ft 406 kts 20°
2026-05-07 21:48 45.79742 -73.44643 18396 ft 411 kts 20°
2026-05-07 21:48 45.82353 -73.42941 18924 ft 414 kts 20°
2026-05-07 21:48 45.85005 -73.41138 18981 ft 429 kts 25°
2026-05-07 21:48 45.87550 -73.38737 18996 ft 445 kts 34°
2026-05-07 21:49 45.89802 -73.35698 19004 ft 450 kts 44°
2026-05-07 21:49 45.91890 -73.32347 18998 ft 447 kts 45°
2026-05-07 21:49 45.93989 -73.29020 18991 ft 444 kts 44°
2026-05-07 21:49 45.96069 -73.25806 18995 ft 443 kts 44°
2026-05-07 21:50 45.98186 -73.22554 18990 ft 443 kts 44°
2026-05-07 21:50 46.00278 -73.19332 18989 ft 444 kts 44°
2026-05-07 21:50 46.02390 -73.16072 18987 ft 444 kts 44°
2026-05-07 21:50 46.04476 -73.12846 18994 ft 445 kts 44°
2026-05-07 21:51 46.06596 -73.09562 18988 ft 445 kts 44°
2026-05-07 21:51 46.08685 -73.06322 18987 ft 445 kts 44°
2026-05-07 21:51 46.10793 -73.03045 18984 ft 445 kts 44°
2026-05-07 21:51 46.12909 -72.99756 18981 ft 445 kts 44°
2026-05-07 21:52 46.14990 -72.96517 18969 ft 444 kts 45°
2026-05-07 21:52 46.17095 -72.93232 18972 ft 444 kts 45°
2026-05-07 21:52 46.19063 -72.89785 18970 ft 445 kts 50°
2026-05-07 21:52 46.20923 -72.86188 18972 ft 445 kts 52°
2026-05-07 21:53 46.22741 -72.82567 18965 ft 444 kts 52°
2026-05-07 21:53 46.24530 -72.78984 18958 ft 444 kts 52°
2026-05-07 21:53 46.26330 -72.75391 18949 ft 437 kts 52°
2026-05-07 21:53 46.28091 -72.71890 18945 ft 423 kts 52°
2026-05-07 21:54 46.29823 -72.68466 18954 ft 418 kts 52°
2026-05-07 21:54 46.31523 -72.65114 18962 ft 419 kts 52°
2026-05-07 21:54 46.33254 -72.61707 18752 ft 421 kts 52°
2026-05-07 21:54 46.34997 -72.58272 18218 ft 420 kts 52°
2026-05-07 21:55 46.36707 -72.54897 17634 ft 416 kts 52°
2026-05-07 21:55 46.38407 -72.51533 17091 ft 410 kts 52°
2026-05-07 21:55 46.40074 -72.48232 16744 ft 400 kts 52°
2026-05-07 21:55 46.41706 -72.44996 16257 ft 393 kts 52°
2026-05-07 21:56 46.43309 -72.41815 16034 ft 395 kts 52°
2026-05-07 21:56 46.44918 -72.38619 15999 ft 384 kts 52°
2026-05-07 21:56 46.46471 -72.35528 15985 ft 369 kts 52°
2026-05-07 21:56 46.47953 -72.32573 15983 ft 353 kts 52°
2026-05-07 21:57 46.49354 -72.29780 15981 ft 338 kts 52°
2026-05-07 21:57 46.50706 -72.27084 15983 ft 324 kts 52°
2026-05-07 21:57 46.52009 -72.24483 15982 ft 311 kts 52°
2026-05-07 21:57 46.53242 -72.22018 15983 ft 298 kts 52°
2026-05-07 21:58 46.54433 -72.19634 15979 ft 285 kts 52°
2026-05-07 21:58 46.55432 -72.17209 15986 ft 273 kts 64°
2026-05-07 21:58 46.56147 -72.14676 15983 ft 267 kts 68°
2026-05-07 21:58 46.56804 -72.12160 16016 ft 273 kts 68°
2026-05-07 21:59 46.57504 -72.09539 16014 ft 280 kts 68°
2026-05-07 21:59 46.58232 -72.06885 16002 ft 282 kts 67°
2026-05-07 21:59 46.58957 -72.04276 15987 ft 280 kts 67°
2026-05-07 21:59 46.59699 -72.01620 15556 ft 290 kts 67°
2026-05-07 22:00 46.60517 -71.98854 14763 ft 307 kts 63°
2026-05-07 22:00 46.61477 -71.95974 14100 ft 319 kts 63°
2026-05-07 22:00 46.62455 -71.93109 13759 ft 318 kts 63°
2026-05-07 22:00 46.63432 -71.90245 13641 ft 309 kts 63°
2026-05-07 22:01 46.64369 -71.87478 13379 ft 301 kts 63°
2026-05-07 22:01 46.65280 -71.84775 12835 ft 300 kts 63°
2026-05-07 22:01 46.66195 -71.82048 12296 ft 299 kts 63°
2026-05-07 22:01 46.67105 -71.79326 11818 ft 296 kts 63°
2026-05-07 22:02 46.68009 -71.76622 11347 ft 295 kts 63°
2026-05-07 22:02 46.68891 -71.73973 10919 ft 293 kts 62°
2026-05-07 22:02 46.69785 -71.71292 10518 ft 291 kts 62°
2026-05-07 22:02 46.70654 -71.68674 10101 ft 289 kts 62°
2026-05-07 22:03 46.71528 -71.66038 9667 ft 287 kts 62°
2026-05-07 22:03 46.72324 -71.63357 9166 ft 287 kts 75°
2026-05-07 22:03 46.72420 -71.60460 8704 ft 286 kts 95°
2026-05-07 22:03 46.72169 -71.57629 8251 ft 283 kts 98°
2026-05-07 22:04 46.71882 -71.54787 7766 ft 282 kts 98°
2026-05-07 22:04 46.71600 -71.51948 7297 ft 281 kts 97°
2026-05-07 22:04 46.71331 -71.49174 6868 ft 279 kts 97°
2026-05-07 22:04 46.71068 -71.46385 6504 ft 275 kts 97°
2026-05-07 22:05 46.70813 -71.43659 6312 ft 265 kts 96°
2026-05-07 22:05 46.70571 -71.41053 6099 ft 256 kts 96°
2026-05-07 22:05 46.70340 -71.38562 6025 ft 238 kts 96°
2026-05-07 22:05 46.70125 -71.36265 5898 ft 224 kts 96°
2026-05-07 22:06 46.69918 -71.34051 5649 ft 217 kts 96°
2026-05-07 22:06 46.69715 -71.31868 5297 ft 217 kts 96°
2026-05-07 22:06 46.69514 -71.29713 5035 ft 213 kts 96°
2026-05-07 22:06 46.69313 -71.27578 5000 ft 211 kts 96°
2026-05-07 22:07 46.69118 -71.25471 4942 ft 211 kts 96°
2026-05-07 22:07 46.68918 -71.23347 4893 ft 212 kts 96°
2026-05-07 22:07 46.68717 -71.21223 4719 ft 211 kts 96°
2026-05-07 22:07 46.68520 -71.19151 4440 ft 205 kts 97°
2026-05-07 22:08 46.68327 -71.17121 4167 ft 199 kts 96°
2026-05-07 22:08 46.68308 -71.15171 3885 ft 192 kts 67°
2026-05-07 22:08 46.69138 -71.13792 3591 ft 178 kts 19°
2026-05-07 22:08 46.70314 -71.13461 3253 ft 170 kts 350°
2026-05-07 22:09 46.71400 -71.13984 2953 ft 160 kts 322°
2026-05-07 22:09 46.72127 -71.15127 2771 ft 155 kts 298°
2026-05-07 22:09 46.72706 -71.16491 2658 ft 161 kts 300°
2026-05-07 22:09 46.73112 -71.17416 2577 ft 163 kts 300°
2026-05-07 22:10 46.73919 -71.19273 2387 ft 163 kts 300°
2026-05-07 22:10 46.74517 -71.20664 2242 ft 159 kts 299°
2026-05-07 22:10 46.75097 -71.22026 2124 ft 157 kts 298°
2026-05-07 22:10 46.75669 -71.23373 2009 ft 158 kts 299°
2026-05-07 22:11 46.76063 -71.24300 1930 ft 159 kts 299°
2026-05-07 22:11 46.76636 -71.25651 1806 ft 156 kts 299°
2026-05-07 22:11 46.77204 -71.26992 1677 ft 155 kts 298°
2026-05-07 22:11 46.77694 -71.28385 1585 ft 154 kts 287°
2026-05-07 22:12 46.77925 -71.29896 1416 ft 149 kts 279°
2026-05-07 22:12 46.78082 -71.31372 1190 ft 141 kts 277°
2026-05-07 22:12 46.78207 -71.32716 1075 ft 129 kts 276°
2026-05-07 22:12 46.78316 -71.33910 975 ft 122 kts 276°
2026-05-07 22:13 46.78432 -71.35158 728 ft 125 kts 276°
2026-05-07 22:13 46.78542 -71.36400 485 ft 119 kts 275°
2026-05-07 22:13 46.78654 -71.37577 344 ft 113 kts 275°
2026-05-07 22:13 46.78754 -71.38655 242 ft 99 kts 276°
2026-05-07 22:14 46.78831 -71.39455 247 ft 58 kts 277°
2026-05-07 22:14 46.78865 -71.39818 249 ft 15 kts 278°
2026-05-07 22:14 46.78884 -71.39922 248 ft 4 kts 276°
2026-05-07 22:14 46.78872 -71.39932 248 ft 2 kts 161°
2026-05-07 22:15 46.78868 -71.39877 248 ft 13 kts 94°
2026-05-07 22:15 46.78852 -71.39680 250 ft 21 kts 97°
2026-05-07 22:15 46.78832 -71.39462 247 ft 22 kts 92°
2026-05-07 22:15 46.78921 -71.39297 245 ft 21 kts 40°
2026-05-07 22:16 46.79029 -71.39150 245 ft 21 kts 45°
2026-05-07 22:16 46.79131 -71.39003 245 ft 20 kts 45°
2026-05-07 22:16 46.79229 -71.38862 245 ft 20 kts 45°
2026-05-07 22:16 46.79325 -71.38723 245 ft 19 kts 40°
2026-05-07 22:17 46.79399 -71.38604 245 ft 12 kts 79°
2026-05-07 22:17 46.79351 -71.38533 245 ft 9 kts 130°
2026-05-07 22:17 46.79329 -71.38467 244 ft 7 kts 115°
2026-05-07 22:17 46.79319 -71.38435 244 ft 0 kts 115°